Location: Brahman Valley
(40.6513°N, 111.8855°W)
Time: 22:30:08
(UTC+00:00)

Vanguard 2 - Pass Details

Date: 19 May 2021
Orbit: 552 x 2937 km, 32.9° (Epoch: 14 June)

Event Time Altitude Azimuth Distance (km) Brightness Sun altitude
Rises 11:35:34 0° 239° (WSW) 3,608 - -6.0°
Exits shadow 11:37:05 - 235° (SW) 3,119 9.9 -5.7°
Reaches altitude 10° 11:37:50 10° 233° (SW) 2,893 9.8 -5.6°
Maximum altitude 11:44:44 47° 161° (SSE) 1,887 9.4 -4.5°
Drops below altitude 10° 11:56:02 10° 94° (E) 4,679 12.6 -2.6°
Sets 12:00:43 0° 90° (E) 6,041 13.4 -1.8°
